7 * 24
多渠道服务支持
STARLINK-37413(NORAD编号68789)是SpaceX星链(Starlink)互联网卫星星座的一员,归属星链低轨卫星网络部署。作为星链项目中第二代V2-mini批次卫星,它运行于近地轨道,依托星链规模化星座架构,为全球提供高速互联网接入服务,重点覆盖传统网络未普及的偏远区域、海洋空域等场景。该卫星随星链批次任务发射入轨,继承了星链卫星的设计,配备星间链路技术,支持更低延迟的数据传输,服务于消费级互联网接入及特定行业通信需求,是SpaceX推进全球卫星互联网组网的组成单元。
美国
(US)
| 数据来源 | 国际轨道数据 |
| 星历时间: | 2026-05-24T12:00:02+0800 1天前 查看轨道信息 |
| 半长轴: | 6739.993km |
| 偏心率: | 0.0001715 |
| 轨道倾角: | 97.285° |
| 近地点辐角 | 74.760° |
| 升交点赤经 | 181.001° |
| 平近点角 | 74.270° |
| 近地点: | 360.7km |
| 远地点: | 363.012km |
| 周期: | 91.780分钟 |
| 每日圈数: | 15.689663 |